Temperature
16 16 15 15 16 16 16 16 16 16 16 16 16 16 16 16 16 16 16 16 16 16 16 17 17 17 17 17 17 17 17 17 17 17 17 17 17 18 17 18 18 18 18
16 15 15 15 15 15 16 16 16 16 16 16 16 16 16 16 16 16 16 16 16 16 16 16 17 17 17 17 17 17 17 17 17 17 17 17 17 17 17 17 17 17 18
15 15 15 15 15 15 16 16 16 16 16 16 16 16 16 16 16 16 16 16 16 16 16 16 16 16 17 17 17 17 17 17 17 17 17 17 17 17 17 17 17 17 17
15 15 15 15 15 15 16 16 16 16 16 16 16 16 16 16 16 16 16 16 16 16 16 16 16 16 16 16 16 17 17 17 17 17 17 17 17 17 17 17 17 17 17
15 15 15 15 15 15 15 16 16 16 16 16 16 16 16 16 16 16 16 16 16 16 16 16 16 16 16 16 16 16 16 17 17 17 17 17 17 17 17 17 17 17 17
15 15 15 15 15 15 15 16 16 16 16 16 16 15 15 15 15 16 15 15 16 16 16 16 16 16 16 16 16 16 16 17 17 17 17 17 17 17 17 17 17 17 17
15 15 15 15 15 15 15 15 16 16 16 16 16 15 15 15 15 15 15 15 15 15 16 16 16 16 16 16 16 16 16 16 16 16 17 17 17 17 17 17 17 17 17
15 15 15 15 15 15 15 15 16 16 16 16 16 16 15 15 15 15 15 15 15 15 15 15 15 16 16 16 16 16 16 16 16 16 16 17 17 17 17 17 17 17 17
15 15 15 15 15 15 15 15 15 15 15 15 16 16 15 15 15 15 15 15 15 15 15 15 15 15 16 16 16 16 16 16 16 16 16 16 16 16 16 16 17 17 17
15 15 15 15 15 15 15 15 15 15 15 15 15 15 15 15 15 15 15 15 15 15 15 15 15 15 15 15 16 16 16 16 16 16 16 16 16 16 16 16 16 16 16
15 15 15 15 15 15 15 15 15 15 15 15 15 15 15 15 15 15 14 14 14 14 14 15 15 15 15 15 15 15 15 15 16 16 16 16 16 16 16 16 16 16 16
15 15 15 15 15 15 15 15 15 15 15 15 15 15 15 15 15 15 14 14 14 14 14 14 14 14 15 15 15 15 15 15 15 15 15 16 16 16 16 16 16 16 16
16 15 15 15 15 15 15 15 15 15 15 15 15 15 15 15 15 15 15 14 14 14 14 14 14 14 14 15 15 15 15 15 15 15 15 15 15 15 16 16 16 16 16
16 16 15 15 15 15 15 15 15 15 15 15 15 15 15 15 15 15 15 14 14 14 14 14 14 14 14 14 14 14 15 15 15 15 15 15 15 15 15 15 15 15 15
16 16 16 15 15 15 15 15 15 15 15 15 15 15 15 15 15 15 15 14 14 14 13 13 13 14 14 14 14 14 14 14 14 15 15 15 15 15 15 15 15 15 15
16 16 16 15 15 15 15 15 15 15 14 14 14 14 14 14 14 14 14 14 14 14 13 13 13 13 13 14 14 14 14 14 14 14 14 14 14 14 15 15 15 15 15
16 16 16 15 15 15 15 15 15 14 14 14 14 14 14 14 14 14 14 14 14 14 14 13 13 13 13 13 13 14 14 14 14 14 14 14 14 14 14 14 14 14 14
16 16 15 15 15 15 15 15 15 15 14 14 14 14 14 14 14 14 14 14 14 13 13 13 13 13 13 13 13 13 13 13 13 13 13 13 13 14 14 14 14 14 14
16 16 15 15 15 15 15 15 15 14 14 14 14 14 14 14 14 14 13 13 13 13 13 13 13 12 12 12 13 13 13 13 13 13 13 13 13 13 13 13 13 13 13
16 16 16 15 15 15 15 15 15 14 14 14 14 14 14 14 13 13 13 13 13 13 13 12 12 12 12 12 12 12 12 13 13 13 13 13 13 13 13 13 13 13 13
16 16 16 15 15 15 15 15 15 14 14 14 14 14 14 13 13 13 13 13 13 13 12 12 12 12 12 12 12 12 12 12 12 12 12 12 12 12 12 12 12 12 12
16 16 15 15 15 15 15 15 14 14 14 14 14 14 13 13 13 13 13 13 13 12 12 12 12 12 11 11 11 11 11 11 11 11 11 12 12 12 12 12 12 12 12
16 16 15 15 15 15 15 14 14 14 14 14 14 13 13 13 13 13 13 13 12 12 12 12 11 11 11 11 11 11 11 11 11 11 11 11 11 11 11 11 11 11 11
16 16 15 15 15 15 14 14 14 14 14 14 13 13 13 13 13 13 12 12 12 12 12 11 11 11 11 10 10 10 10 10 10 10 10 10 10 11 11 11 11 11 11
16 15 15 15 15 15 14 14 14 14 14 13 13 13 13 13 12 12 12 12 12 12 11 11 11 10 10 10 10 10 10 10 10 10 10 10 10 10 10 10 10 10 10
16 15 15 15 15 14 14 14 14 14 13 13 13 13 13 12 12 12 12 12 12 11 11 11 11 10 10 10 10 10 10 9 9 9 9 9 9 9 9 9 9 9 10
Wind_Speed
2 2 2 3 3 4 3 3 3 3 3 4 4 4 4 5 5 4 4 6 6 5 5 5 5 6 6 7 7 8 8 9 11 11 11 11 12 13 13 13 12 12 11
4 3 3 4 4 4 4 4 3 3 3 3 4 4 5 4 4 4 4 4 5 5 5 5 5 6 6 6 7 8 8 9 10 11 11 11 12 13 13 13 13 11 11
7 5 3 3 4 6 6 5 5 4 4 4 4 3 4 4 4 4 4 4 4 4 5 5 5 5 5 6 7 7 8 8 9 10 11 11 11 12 13 12 12 11 11
9 7 4 3 5 6 5 3 4 4 4 4 3 3 3 3 4 4 4 4 4 4 4 5 5 5 5 6 6 7 7 8 8 9 10 10 11 12 12 13 12 13 13
10 7 4 4 6 5 4 3 4 3 3 3 3 4 4 3 3 4 4 4 4 4 4 5 5 6 6 6 6 7 7 8 8 8 9 10 11 11 11 12 13 13 13
9 8 5 5 6 4 4 4 4 4 3 3 4 5 4 4 4 4 3 4 4 5 5 5 5 6 7 7 6 7 7 7 8 8 8 9 10 10 10 11 12 13 13
8 7 4 4 4 4 4 4 3 5 5 3 4 4 5 5 6 5 4 4 4 4 5 5 5 5 5 7 7 8 8 7 7 7 7 8 9 9 9 10 10 11 12
7 6 5 3 4 4 6 5 4 3 4 4 3 4 4 5 5 6 5 4 4 5 4 5 6 6 6 6 7 8 8 8 7 7 7 8 8 9 9 9 9 9 10
8 7 6 4 4 4 4 4 4 4 3 4 3 4 4 1 2 4 5 5 5 4 4 5 6 6 7 7 7 8 8 8 8 8 7 7 8 8 8 8 8 8 8
7 7 7 6 5 4 4 4 4 3 4 3 3 3 2 3 3 2 4 4 5 5 5 5 5 7 7 7 7 8 9 9 9 8 8 7 6 7 7 7 7 6 7
5 6 6 6 4 3 4 5 5 5 3 3 2 2 3 3 3 4 2 3 4 4 4 4 4 5 7 7 7 8 9 9 9 8 8 8 6 6 6 6 6 6 5
3 4 5 5 4 3 4 4 4 5 4 4 4 3 3 3 2 3 3 1 2 3 4 4 4 4 6 7 7 8 8 9 9 8 8 8 7 6 5 5 5 5 4
1 2 3 3 3 3 4 4 5 5 5 5 4 3 3 2 2 3 3 2 2 2 3 3 3 5 6 7 7 8 8 8 8 9 9 8 8 7 6 6 5 5 4
2 2 3 4 4 5 5 5 4 4 5 5 5 4 4 3 3 3 3 3 3 3 4 3 3 5 5 6 6 7 7 8 8 8 8 8 8 7 7 7 6 6 5
2 3 4 4 4 5 5 5 5 4 5 5 5 5 5 4 4 3 3 3 4 2 2 3 3 4 5 5 6 6 6 7 8 7 8 7 7 6 6 6 6 5 5
2 4 3 3 4 5 5 5 5 4 6 5 4 6 6 4 4 4 4 3 3 3 1 1 1 2 4 5 6 6 5 6 7 7 7 7 7 6 6 5 5 5 6
4 4 4 4 4 5 5 5 5 5 6 6 5 6 6 5 5 5 4 4 4 3 3 1 2 3 3 4 6 7 6 6 6 7 7 7 7 7 7 6 6 6 6
4 4 5 5 5 5 5 5 5 5 6 6 5 6 5 5 6 5 5 5 3 3 3 2 2 3 4 3 4 4 6 6 6 8 8 7 8 8 8 7 7 7 7
5 5 6 6 5 5 5 4 5 5 5 4 4 5 4 5 5 4 4 4 3 4 3 2 2 2 2 3 3 4 5 5 7 8 8 8 8 9 9 8 9 8 8
6 6 6 5 5 4 5 5 5 6 5 5 4 4 3 4 3 3 3 3 3 4 4 3 2 3 3 3 3 3 4 4 4 7 8 8 9 9 10 10 9 9 8
7 6 6 5 4 4 4 5 5 6 5 5 4 3 3 5 6 4 3 3 3 3 3 3 2 3 3 3 3 3 3 3 3 4 4 5 6 7 8 9 10 10 10
6 6 6 6 4 3 6 8 7 5 5 5 4 3 3 5 7 7 7 5 4 4 3 2 1 1 2 2 2 2 2 3 3 4 3 4 4 3 6 7 9 10 10
6 6 5 5 4 3 6 7 8 5 5 4 3 3 3 4 5 4 6 7 6 5 3 3 2 1 2 2 1 2 2 1 2 3 2 3 3 3 6 8 10 10 11
6 5 5 5 4 3 5 6 7 5 4 3 3 3 4 2 2 3 4 5 4 4 3 2 2 2 3 2 2 1 2 2 3 3 2 2 4 3 5 7 8 10 12
5 4 5 5 5 3 4 6 7 4 4 3 2 2 3 2 2 4 4 3 3 3 4 4 3 2 3 2 1 2 2 2 3 3 2 1 3 4 4 3 6 10 12
5 5 5 4 5 4 4 6 7 4 4 2 1 1 2 2 2 4 3 3 1 2 3 4 5 6 5 4 4 1 1 1 1 3 3 2 2 3 4 3 4 9 11
Wind_Direction
73 48 28 23 16 17 20 26 25 39 45 47 65 89 91 104 117 126 124 125 118 114 106 97 85 78 71 66 65 62 57 54 50 47 47 49 50 52 53 54 58 64 72
74 61 43 30 27 30 40 48 38 49 48 55 46 69 85 97 109 116 116 115 114 110 104 97 87 80 74 72 66 62 60 58 54 50 48 49 50 51 53 52 56 68 78
72 69 53 33 24 42 50 52 41 45 50 55 47 48 72 82 90 98 107 108 99 92 98 93 83 79 77 76 68 64 61 59 57 52 50 50 51 52 50 49 59 70 80
74 69 54 31 34 45 46 52 44 49 46 50 48 38 46 67 70 80 86 91 85 80 81 79 78 77 72 70 67 63 60 58 56 53 51 52 52 55 51 53 61 72 81
69 69 54 36 42 43 33 49 50 59 57 53 61 51 38 43 47 70 72 81 88 86 86 71 70 68 65 60 60 59 58 59 56 55 55 57 58 59 56 58 60 71 81
64 66 57 42 47 46 38 46 57 50 57 61 70 59 39 31 37 45 52 64 70 76 83 72 61 57 59 55 55 54 58 58 57 58 58 59 61 60 58 62 63 71 81
65 65 62 45 45 52 46 48 62 56 41 46 67 42 21 24 36 32 31 44 48 60 72 73 64 61 55 52 50 50 50 52 55 59 59 60 61 60 62 65 68 71 81
65 69 66 56 48 57 48 44 57 64 39 42 90 79 35 11 6 16 25 41 34 49 62 69 65 62 61 55 47 45 43 43 49 57 62 64 64 62 62 64 70 75 81
67 69 69 67 56 63 61 52 62 79 65 33 59 116 118 139 347 358 17 26 27 40 43 62 61 58 63 58 49 43 44 43 48 53 58 62 64 62 62 66 69 77 83
63 70 75 73 65 64 65 55 64 75 88 60 32 49 109 141 121 37 0 9 26 36 38 55 57 57 61 60 51 47 46 46 46 50 52 56 64 62 60 64 67 74 85
52 69 75 74 68 64 65 62 61 64 76 88 73 65 66 62 80 111 67 3 17 15 27 39 52 53 54 54 49 46 45 45 46 47 49 50 59 66 64 66 65 70 80
31 54 74 74 73 68 64 67 68 71 74 79 76 74 89 95 102 110 116 80 44 0 16 26 39 43 45 48 47 46 47 46 45 45 48 47 48 56 63 63 64 67 71
63 58 75 72 67 72 74 72 69 65 68 75 73 71 71 79 119 121 116 114 69 1 9 11 11 31 38 39 40 42 44 46 46 44 43 45 47 49 53 54 52 50 53
164 130 99 82 73 76 78 75 68 65 68 69 69 70 66 52 66 97 124 123 84 26 19 355 351 15 23 33 35 39 36 39 43 42 38 38 42 46 47 48 42 37 33
150 116 101 88 75 74 77 77 71 65 70 65 65 65 63 49 53 61 86 116 127 104 13 337 349 349 5 27 30 33 31 28 33 35 32 31 33 39 40 41 35 26 20
134 117 102 95 79 70 74 74 72 66 71 60 65 67 58 49 51 53 66 71 92 127 123 321 327 326 2 23 21 18 17 20 21 24 25 24 27 27 26 30 28 21 12
135 126 123 108 90 78 76 80 74 73 75 63 60 69 61 56 58 49 58 65 66 91 105 347 346 348 8 9 7 13 14 10 7 10 8 10 13 15 14 10 10 9 4
134 128 120 110 102 91 82 85 83 81 83 77 70 73 62 66 59 50 59 59 57 67 105 69 2 0 4 351 357 5 8 10 7 9 6 6 9 10 9 7 359 355 352
122 115 117 118 113 104 96 94 97 91 88 88 90 91 80 78 67 56 59 56 48 54 67 84 21 359 353 352 4 359 7 7 11 10 12 17 16 15 12 9 5 359 354
127 124 121 121 117 108 104 102 97 93 86 77 77 88 92 97 101 90 73 64 69 61 57 61 33 1 349 340 16 9 358 355 356 9 13 15 16 17 17 14 8 5 2
131 130 122 113 110 113 119 115 106 104 99 86 67 64 75 88 92 93 94 98 92 81 66 58 32 10 356 358 357 343 352 338 341 1 357 1 7 11 5 5 4 0 360
126 124 124 122 115 115 124 124 121 110 104 101 90 68 65 60 67 68 72 84 104 110 110 97 54 15 318 316 327 345 2 10 339 339 358 333 359 350 354 357 359 2 3
135 130 132 127 123 130 127 122 122 119 113 117 117 104 90 71 67 61 52 51 48 56 100 141 145 224 251 257 303 350 352 340 287 299 347 324 337 336 342 351 1 7 4
147 147 148 145 137 149 140 128 123 108 106 112 124 135 124 98 86 94 75 54 36 20 30 85 171 227 234 232 208 224 256 300 303 321 16 330 326 315 319 333 354 2 359
154 155 155 155 152 167 156 142 128 112 108 103 104 124 133 123 116 112 95 72 33 356 13 28 30 13 4 8 32 56 22 29 344 320 348 6 315 315 311 312 337 352 351
161 155 154 165 167 180 181 158 142 127 126 127 96 84 158 158 141 124 118 110 42 317 337 358 4 4 6 6 7 81 156 117 321 305 314 353 324 341 328 306 319 332 335
Height
1549 1548 1547 1547 1546 1545 1545 1544 1544 1544 1544 1544 1544 1545 1545 1545 1546 1546 1546 1546 1546 1546 1546 1546 1545 1545 1545 1544 1543 1542 1541 1539 1537 1535 1533 1531 1529 1527 1525 1523 1521 1519 1517
1549 1549 1548 1547 1547 1546 1546 1545 1545 1545 1545 1545 1545 1546 1546 1547 1547 1547 1547 1547 1547 1547 1547 1547 1547 1546 1546 1545 1545 1544 1542 1541 1539 1538 1536 1534 1532 1530 1528 1526 1523 1522 1521
1550 1550 1549 1548 1547 1547 1546 1546 1546 1546 1546 1546 1547 1547 1548 1548 1548 1548 1549 1549 1548 1548 1548 1548 1548 1548 1547 1547 1546 1545 1544 1543 1542 1540 1539 1537 1535 1533 1531 1528 1526 1524 1524
1552 1551 1550 1549 1548 1547 1547 1547 1547 1547 1547 1548 1548 1549 1549 1549 1549 1550 1550 1550 1550 1549 1549 1550 1549 1549 1549 1548 1548 1547 1546 1545 1544 1543 1541 1540 1538 1536 1533 1531 1530 1527 1527
1553 1552 1551 1550 1549 1549 1548 1548 1548 1548 1548 1549 1549 1550 1550 1551 1551 1551 1551 1551 1551 1551 1551 1551 1551 1551 1550 1550 1549 1549 1548 1547 1546 1545 1544 1543 1541 1540 1537 1535 1533 1532 1532
1554 1553 1552 1552 1551 1550 1549 1549 1549 1549 1550 1550 1551 1551 1552 1552 1552 1552 1552 1553 1553 1552 1552 1552 1552 1552 1551 1551 1551 1550 1550 1549 1548 1547 1547 1546 1544 1543 1542 1540 1539 1537 1537
1555 1554 1553 1553 1552 1551 1551 1551 1551 1551 1551 1551 1552 1553 1553 1554 1554 1554 1554 1554 1554 1554 1554 1554 1553 1553 1553 1553 1552 1552 1551 1551 1550 1549 1549 1548 1547 1546 1545 1544 1543 1542 1542
1557 1556 1555 1554 1553 1553 1552 1552 1552 1552 1552 1552 1553 1553 1554 1556 1555 1555 1556 1556 1556 1556 1555 1555 1555 1555 1554 1554 1554 1553 1553 1552 1552 1551 1551 1550 1549 1548 1548 1547 1547 1547 1547
1558 1557 1557 1556 1555 1555 1554 1554 1554 1553 1553 1553 1554 1554 1555 1555 1556 1557 1557 1557 1557 1557 1557 1557 1556 1556 1556 1555 1555 1554 1554 1553 1553 1553 1552 1552 1551 1551 1551 1550 1550 1550 1550
1560 1559 1558 1558 1557 1556 1556 1555 1555 1555 1555 1554 1555 1555 1556 1556 1556 1558 1559 1559 1559 1558 1558 1558 1558 1557 1557 1557 1556 1556 1555 1555 1554 1554 1554 1553 1553 1553 1553 1552 1552 1552 1553
1561 1561 1560 1560 1559 1558 1558 1557 1557 1556 1556 1556 1556 1556 1556 1557 1557 1557 1559 1560 1560 1560 1560 1559 1559 1559 1558 1558 1557 1557 1556 1556 1555 1555 1555 1555 1554 1554 1554 1554 1554 1554 1554
1563 1562 1562 1562 1561 1560 1560 1559 1559 1558 1558 1557 1557 1557 1557 1557 1558 1558 1559 1560 1560 1561 1561 1561 1560 1560 1559 1559 1558 1558 1557 1557 1556 1556 1556 1556 1556 1555 1555 1555 1555 1555 1556
1564 1564 1563 1563 1563 1562 1562 1561 1561 1560 1560 1559 1559 1559 1558 1559 1559 1559 1559 1560 1561 1562 1562 1562 1561 1561 1560 1560 1559 1559 1558 1558 1557 1557 1556 1556 1556 1556 1556 1556 1556 1556 1556
1565 1565 1565 1565 1564 1564 1563 1563 1562 1562 1561 1561 1560 1560 1560 1560 1560 1560 1561 1561 1561 1562 1562 1562 1562 1561 1561 1560 1560 1559 1559 1558 1558 1557 1557 1556 1556 1556 1556 1556 1556 1556 1556
1566 1566 1566 1566 1566 1565 1565 1565 1564 1563 1563 1562 1562 1562 1561 1561 1561 1561 1561 1562 1562 1562 1562 1563 1562 1562 1561 1561 1560 1560 1559 1559 1558 1557 1557 1557 1556 1556 1556 1556 1556 1555 1555
1567 1567 1567 1567 1567 1566 1566 1566 1565 1565 1564 1564 1564 1563 1563 1562 1562 1562 1562 1562 1563 1563 1562 1563 1563 1562 1562 1561 1561 1560 1559 1559 1558 1558 1557 1557 1556 1556 1556 1555 1555 1554 1554
1567 1568 1568 1568 1567 1567 1567 1567 1566 1566 1566 1565 1565 1565 1564 1564 1564 1563 1563 1563 1563 1563 1563 1563 1563 1563 1562 1561 1561 1560 1560 1559 1558 1557 1557 1556 1556 1555 1555 1554 1554 1553 1553
1568 1568 1568 1568 1568 1568 1568 1567 1567 1567 1566 1566 1566 1566 1566 1565 1565 1565 1564 1564 1564 1564 1564 1563 1563 1563 1562 1561 1561 1560 1559 1558 1558 1557 1556 1556 1555 1554 1554 1553 1553 1552 1551
1568 1568 1568 1569 1569 1569 1569 1568 1568 1568 1567 1567 1567 1567 1566 1566 1566 1565 1565 1565 1564 1564 1564 1563 1563 1562 1561 1561 1560 1559 1559 1558 1557 1556 1555 1555 1554 1553 1552 1552 1551 1550 1549
1567 1568 1568 1569 1569 1569 1569 1569 1569 1568 1568 1567 1567 1567 1567 1566 1566 1566 1565 1565 1565 1564 1564 1563 1562 1562 1561 1560 1559 1558 1557 1557 1556 1555 1554 1553 1552 1552 1551 1550 1549 1548 1547
1567 1568 1568 1568 1569 1569 1569 1569 1569 1569 1568 1568 1567 1567 1567 1567 1566 1566 1565 1565 1565 1564 1563 1563 1562 1561 1560 1559 1558 1557 1556 1555 1554 1553 1552 1551 1550 1549 1548 1547 1546 1545 1544
1566 1567 1568 1568 1568 1569 1569 1569 1569 1569 1568 1568 1568 1567 1567 1567 1566 1566 1565 1565 1564 1564 1563 1562 1561 1560 1559 1558 1557 1556 1554 1553 1552 1552 1550 1549 1548 1547 1546 1544 1543 1542 1541
1565 1566 1567 1567 1567 1568 1568 1568 1568 1568 1568 1568 1568 1567 1567 1567 1566 1566 1565 1565 1564 1563 1563 1562 1561 1560 1559 1557 1556 1554 1553 1552 1551 1550 1548 1546 1546 1544 1543 1542 1540 1539 1537
1563 1564 1565 1566 1566 1566 1567 1567 1567 1567 1567 1567 1567 1567 1566 1566 1566 1565 1565 1564 1563 1562 1561 1560 1560 1559 1558 1556 1555 1554 1552 1551 1550 1548 1547 1544 1543 1541 1540 1539 1537 1536 1534
1561 1562 1563 1564 1564 1565 1565 1565 1566 1566 1566 1566 1566 1566 1565 1565 1565 1564 1564 1563 1562 1561 1561 1559 1558 1557 1556 1555 1554 1553 1551 1549 1548 1546 1545 1543 1540 1538 1536 1536 1534 1533 1531
1559 1560 1561 1562 1563 1563 1564 1564 1564 1564 1564 1565 1564 1564 1564 1564 1564 1563 1562 1561 1561 1560 1559 1558 1557 1556 1555 1554 1552 1551 1549 1548 1546 1544 1543 1541 1539 1536 1533 1532 1531 1529 1527